Location: La Pernelle
(49.6188°N, 1.2999°W)
Time: 06:32:23
(UTC+00:00)

Cosmos 2061 Rocket - Visible Passes

Search period start: 26 October 2021 00:00
Search period end: 05 November 2021 00:00
Orbit: 967 x 1011 km, 82.9° (Epoch: 25 October)

Date Brightness Start Highest point End Pass type
(mag) Time Alt. Az. Time Alt. Az. Time Alt. Az.
26 Oct 6.5 05:13:04 10° NNE 05:17:46 21° ENE 05:22:25 10° ESE visible
26 Oct 5.1 18:57:29 26° NE 18:57:29 26° NE 19:00:59 10° NNE visible
26 Oct 5.0 20:42:23 43° NNW 20:42:23 43° NNW 20:47:08 10° N visible
26 Oct 6.7 22:27:15 11° WNW 22:28:14 11° NW 22:30:02 10° NW visible
27 Oct 5.8 05:41:59 10° N 05:47:49 34° ENE 05:53:34 10° SE visible
27 Oct 4.2 19:25:32 51° ENE 19:25:32 51° ENE 19:30:55 10° NNE visible
27 Oct 5.6 21:10:21 30° WNW 21:10:42 31° WNW 21:16:19 10° N visible
28 Oct 6.8 04:27:41 10° NNE 04:30:25 13° NE 04:33:06 10° ENE visible
28 Oct 4.8 06:11:15 10° N 06:17:38 59° ENE 06:23:54 10° SSE visible
28 Oct 5.2 18:05:01 10° ESE 18:09:15 19° ENE 18:13:31 10° NE visible
28 Oct 4.0 19:47:41 10° S 19:54:04 85° W 20:00:34 10° N visible
28 Oct 6.3 21:36:31 10° WSW 21:40:48 18° WNW 21:45:09 10° NNW visible
29 Oct 6.5 04:55:52 10° NNE 05:00:41 22° ENE 05:05:28 10° ESE visible
29 Oct 4.6 18:32:41 10° SSE 18:38:16 33° E 18:43:55 10° NNE visible
29 Oct 4.8 20:17:34 10° SSW 20:23:44 50° WNW 20:29:59 10° N visible
29 Oct 6.8 22:09:55 10° WNW 22:11:11 11° NW 22:12:27 10° NW visible
30 Oct 5.7 05:24:49 10° N 05:30:44 36° ENE 05:36:32 10° SE visible
30 Oct 5.7 17:22:07 10° E 17:23:15 10° ENE 17:24:22 10° ENE visible
30 Oct 4.0 19:01:17 10° S 19:07:29 59° E 19:13:49 10° NNE visible
30 Oct 5.7 20:48:08 10° SW 20:53:37 29° WNW 20:59:09 10° N visible
31 Oct 6.8 04:10:22 10° NNE 04:13:20 13° NE 04:16:19 10° E visible
31 Oct 4.7 05:54:07 10° N 06:00:30 62° ENE 06:06:49 10° SSE visible
31 Oct 5.2 17:47:38 10° ESE 17:52:04 20° E 17:56:31 10° NE visible
31 Oct 4.0 19:30:33 10° SSW 19:36:57 81° W 19:43:26 10° N visible
31 Oct 6.4 21:19:36 10° W 21:23:44 18° WNW 21:27:54 10° NNW visible
01 Nov 6.4 04:38:40 10° NNE 04:43:37 23° ENE 04:48:30 10° ESE visible
01 Nov 4.5 18:15:25 10° SSE 18:21:06 35° E 18:26:50 10° NNE visible
01 Nov 4.9 20:00:29 10° SSW 20:06:37 47° WNW 20:12:50 10° N visible
02 Nov 5.5 05:07:40 10° N 05:13:37 38° ENE 05:19:29 10° SE visible
02 Nov 4.0 18:44:05 10° S 18:50:21 62° E 18:56:42 10° NNE visible
02 Nov 5.8 20:31:08 10° WSW 20:36:31 28° WNW 20:41:59 10° N visible
03 Nov 6.8 03:53:03 10° NNE 03:56:17 14° NE 03:59:30 10° E visible
03 Nov 4.5 05:36:58 10° N 05:43:23 65° ENE 05:49:42 10° SSE visible
03 Nov 5.1 17:30:16 10° SE 17:34:52 21° E 17:39:30 10° NNE visible
03 Nov 4.1 19:13:25 10° SSW 19:19:49 77° W 19:26:18 10° N visible
03 Nov 6.5 21:02:43 10° W 21:06:40 17° WNW 21:10:40 10° NNW visible
04 Nov 6.2 04:21:28 10° N 04:26:32 24° ENE 04:31:32 10° ESE visible
04 Nov 4.1 06:06:30 10° NNW 06:12:55 74° W 06:19:15 10° S visible
04 Nov 4.5 17:58:09 10° SSE 18:03:55 37° E 18:09:45 10° NNE visible
04 Nov 5.0 19:43:25 10° SW 19:49:31 45° WNW 19:55:41 10° N visible
